Location: Pebble Beach Sunset Acres
(33.0837°N, 96.4508°W)
Time: 20:52:18
(UTC+00:00)

DELTA 2 R/B (1) - Pass Details

Date: 29 June 2022
Orbit: 790 x 803 km, 39.6° (Epoch: 11 August)

Event Time Altitude Azimuth Distance (km) Brightness Sun altitude
Rises 02:34:58 0° 292° (WNW) 3,293 8.5 -10.7°
Reaches altitude 10° 02:37:30 10° 297° (WNW) 2,365 7.5 -11.2°
Maximum altitude 02:42:58 53° 14° (NNE) 972 4.2 -12.1°
Enters shadow 02:48:21 10° 91° (E) 2,339 5.5 -12.9°
